Home   Weather   Muscat   Past weeks

Flag for Oman Past Weather in Muscat, Oman — Yesterday and Last 2 Weeks

Now
88 °F

Clear.


Feels Like: 108 °F
Forecast: 87 / 94 °F
Wind: 6 mph from East

Location: International Airport

Current Time: Jul 27, 2017 at 6:59:30 am

Latest Report: Jul 27, 2017 at 5:50 am


Visibility: 4 mi

Pressure: 29.47 "Hg

Humidity: 84%

Dew Point: 82 °F

Location of MuscatLocation

Past Weather in Muscat — Graph

°F

Muscat Temperature Yesterday

Maximum temperature yesterday: 108 °F (at 12:50 pm)
Minimum temperature yesterday: 95 °F (at 3:50 pm)
Average temperature yesterday: 102 °F

High & Low Weather Summary for the Past Weeks

 TemperatureHumidityPressure
High109 °F (Jul 24, 4:50 pm)94% (Jul 12, 4:50 am)29.53 "Hg (Jul 12, 4:50 am)
Low86 °F (Jul 15, 2:50 am)14% (Jul 21, 1:50 pm)29.36 "Hg (Jul 20, 5:50 pm)
Average95 °F60%29.44 "Hg
* Reported Jul 12 4:50 am — Jul 27 4:50 am, Muscat. Weather by CustomWeather, © 2017

Note: Actual official high and low records may vary slightly from our data, if they occured in-between our weather recording intervals... More about our weather records

Advertising

Muscat Weather History for the Previous 24 Hours

Scroll right to see more
 ConditionsComfort  
Time TempWeatherWind HumidityBarometerVisibility
4:50 am
Thu, Jul 27
90 °FClear.7 mph79%29.45 "Hg5 mi
3:50 am91 °FClear.10 mph71%29.42 "Hg6 mi
2:50 am104 °FClear.12 mph24%29.39 "Hg6 mi
1:50 am99 °FClear.3 mph37%29.39 "Hg6 mi
12:50 am99 °FClear.6 mph44%29.42 "Hg6 mi
11:50 pm
Wed, Jul 26
106 °FClear.12 mph22%29.42 "Hg5 mi
10:50 pm106 °FClear.12 mph22%29.42 "Hg5 mi
9:50 pm100 °FClear.2 mph37%29.42 "Hg5 mi
8:50 pm99 °FClear.5 mph42%29.42 "Hg5 mi
7:50 pm99 °FClear.5 mph44%29.42 "Hg5 mi
6:50 pm100 °FClear.2 mph45%29.42 "Hg4 mi
5:50 pm99 °FScattered clouds.5 mph50%29.39 "Hg4 mi
4:50 pm97 °FScattered clouds.7 mph60%29.39 "Hg5 mi
3:50 pm95 °FPassing clouds.10 mph71%29.39 "Hg5 mi
2:50 pm99 °FPassing clouds.13 mph64%29.39 "Hg5 mi
1:50 pm108 °FPassing clouds.13 mph25%29.39 "Hg5 mi
12:50 pm108 °FPassing clouds.13 mph28%29.42 "Hg5 mi
11:50 am106 °FClear.13 mph30%29.42 "Hg5 mi
10:50 am106 °FClear.8 mph32%29.45 "Hg5 mi
9:50 am104 °FClear.8 mph33%29.45 "Hg5 mi
8:50 am99 °FClear.9 mph53%29.45 "Hg5 mi
7:50 am104 °FClear.13 mph29%29.45 "Hg5 mi
6:50 am102 °FSunny.15 mph31%29.42 "Hg10 mi
Weather by CustomWeather, © 2017

See weather overviewHow to use our weather pages